contact:dominique.lefevre@mio.osupytheas.fr, maurice.libes@osupytheas.fr, didier.mallarino@osupytheas.fr
Project:EMSO http://www.emso-fr.org/EMSO-France
Depth: 2436.0 m
Title:EMSO Ligure Ouest : Data MII capteur MICROCAT
DateTime_Computer,Latitude,Longitude,Temperature,Conductivity,Pressure,DateTime_Instrument
DateTime_Computer,Latitude,Longitude,degC,S m-1,dbar,DateTime_Instrument
2021-05-08T00:02:42Z,42.805,6.029,13.2987,4.60002,2470.614,2021-5-08T02:03:52Z
2021-05-08T00:05:45Z,42.805,6.029,13.2990,4.59995,2470.586,2021-5-08T02:06:55Z
2021-05-08T00:08:48Z,42.805,6.029,13.2990,4.59995,2470.577,2021-5-08T02:09:58Z
2021-05-08T00:11:51Z,42.805,6.029,13.2992,4.59994,2470.53,2021-5-08T02:13:01Z
2021-05-08T00:14:54Z,42.805,6.029,13.2990,4.59995,2470.6,2021-5-08T02:16:04Z
2021-05-08T00:17:57Z,42.805,6.029,13.2990,4.59996,2470.6,2021-5-08T02:19:08Z
2021-05-08T00:21:00Z,42.805,6.029,13.2991,4.59993,2470.577,2021-5-08T02:22:11Z
2021-05-08T00:24:03Z,42.805,6.029,13.2991,4.59993,2470.577,2021-5-08T02:25:14Z
2021-05-08T00:27:06Z,42.805,6.029,13.2990,4.59996,2470.591,2021-5-08T02:28:17Z
2021-05-08T00:30:10Z,42.805,6.029,13.2991,4.59995,2470.6,2021-5-08T02:31:20Z
2021-05-08T00:33:13Z,42.805,6.029,13.2989,4.59996,2470.6,2021-5-08T02:34:23Z
2021-05-08T00:36:16Z,42.805,6.029,13.2989,4.59996,2470.6,2021-5-08T02:37:26Z
2021-05-08T00:39:19Z,42.805,6.029,13.2990,4.59996,2470.6,2021-5-08T02:40:29Z
2021-05-08T00:42:22Z,42.805,6.029,13.2988,4.59995,2470.624,2021-5-08T02:43:32Z
2021-05-08T00:45:25Z,42.805,6.029,13.2988,4.59994,2470.6,2021-5-08T02:46:36Z
2021-05-08T00:48:28Z,42.805,6.029,13.2991,4.60005,2470.614,2021-5-08T02:49:39Z
2021-05-08T00:51:31Z,42.805,6.029,13.2993,4.59995,2470.553,2021-5-08T02:52:42Z
2021-05-08T00:54:35Z,42.805,6.029,13.2992,4.59995,2470.6,2021-5-08T02:55:45Z
2021-05-08T00:57:38Z,42.805,6.029,13.2990,4.59996,2470.577,2021-5-08T02:58:48Z
2021-05-08T01:00:41Z,42.805,6.029,13.2987,4.60001,2470.6,2021-5-08T03:01:51Z
2021-05-08T01:03:44Z,42.805,6.029,13.2984,4.59997,2470.6,2021-5-08T03:04:54Z
2021-05-08T01:06:47Z,42.805,6.029,13.2991,4.59996,2470.577,2021-5-08T03:07:57Z
2021-05-08T01:09:50Z,42.805,6.029,13.2993,4.59995,2470.624,2021-5-08T03:11:01Z
2021-05-08T01:12:53Z,42.805,6.029,13.2993,4.59998,2470.614,2021-5-08T03:14:04Z
2021-05-08T01:15:56Z,42.805,6.029,13.2991,4.59996,2470.591,2021-5-08T03:17:07Z
2021-05-08T01:18:59Z,42.805,6.029,13.2992,4.59996,2470.637,2021-5-08T03:20:10Z
2021-05-08T01:22:03Z,42.805,6.029,13.2989,4.59996,2470.624,2021-5-08T03:23:13Z
2021-05-08T01:25:06Z,42.805,6.029,13.2991,4.59995,2470.624,2021-5-08T03:26:16Z
2021-05-08T01:28:09Z,42.805,6.029,13.2988,4.59997,2470.637,2021-5-08T03:29:19Z
2021-05-08T01:31:12Z,42.805,6.029,13.2993,4.59996,2470.624,2021-5-08T03:32:22Z
2021-05-08T01:34:15Z,42.805,6.029,13.2989,4.59996,2470.614,2021-5-08T03:35:25Z
2021-05-08T01:37:18Z,42.805,6.029,13.2993,4.59997,2470.6,2021-5-08T03:38:29Z
2021-05-08T01:40:21Z,42.805,6.029,13.2993,4.59996,2470.614,2021-5-08T03:41:32Z
2021-05-08T01:43:24Z,42.805,6.029,13.2990,4.59999,2470.6,2021-5-08T03:44:35Z
2021-05-08T01:46:28Z,42.805,6.029,13.2990,4.59999,2470.614,2021-5-08T03:47:38Z
2021-05-08T01:49:31Z,42.805,6.029,13.2993,4.60000,2470.646,2021-5-08T03:50:41Z
2021-05-08T01:52:34Z,42.805,6.029,13.2990,4.59996,2470.624,2021-5-08T03:53:44Z
2021-05-08T01:55:37Z,42.805,6.029,13.2990,4.59998,2470.637,2021-5-08T03:56:47Z
2021-05-08T01:58:40Z,42.805,6.029,13.2990,4.59999,2470.646,2021-5-08T03:59:50Z
2021-05-08T02:01:43Z,42.805,6.029,13.2991,4.60007,2470.661,2021-5-08T04:02:54Z
2021-05-08T02:04:46Z,42.805,6.029,13.2993,4.60009,2470.624,2021-5-08T04:05:57Z
2021-05-08T02:07:49Z,42.805,6.029,13.2992,4.60009,2470.646,2021-5-08T04:09:00Z
2021-05-08T02:10:52Z,42.805,6.029,13.2990,4.60001,2470.684,2021-5-08T04:12:03Z
2021-05-08T02:13:56Z,42.805,6.029,13.2993,4.60000,2470.684,2021-5-08T04:15:06Z
2021-05-08T02:16:59Z,42.805,6.029,13.2990,4.60004,2470.633,2021-5-08T04:18:09Z
2021-05-08T02:20:02Z,42.805,6.029,13.2990,4.60009,2470.637,2021-5-08T04:21:12Z
2021-05-08T02:23:05Z,42.805,6.029,13.2990,4.60003,2470.67,2021-5-08T04:24:15Z
2021-05-08T02:26:08Z,42.805,6.029,13.2991,4.60003,2470.693,2021-5-08T04:27:18Z
2021-05-08T02:29:11Z,42.805,6.029,13.2990,4.60003,2470.67,2021-5-08T04:30:22Z
2021-05-08T02:32:14Z,42.805,6.029,13.2991,4.60009,2470.693,2021-5-08T04:33:25Z
2021-05-08T02:35:17Z,42.805,6.029,13.2989,4.60010,2470.684,2021-5-08T04:36:28Z
2021-05-08T02:38:21Z,42.805,6.029,13.2992,4.60016,2470.646,2021-5-08T04:39:31Z
2021-05-08T02:41:24Z,42.805,6.029,13.2993,4.60011,2470.67,2021-5-08T04:42:34Z
2021-05-08T02:44:27Z,42.805,6.029,13.2991,4.60014,2470.684,2021-5-08T04:45:37Z
2021-05-08T02:47:30Z,42.805,6.029,13.2990,4.60003,2470.684,2021-5-08T04:48:40Z
2021-05-08T02:50:33Z,42.805,6.029,13.2993,4.60014,2470.684,2021-5-08T04:51:43Z
2021-05-08T02:53:36Z,42.805,6.029,13.2991,4.60011,2470.684,2021-5-08T04:54:47Z
2021-05-08T02:56:39Z,42.805,6.029,13.2989,4.60011,2470.67,2021-5-08T04:57:50Z
2021-05-08T02:59:42Z,42.805,6.029,13.2998,4.60021,2470.646,2021-5-08T05:00:53Z
2021-05-08T03:02:45Z,42.805,6.029,13.2991,4.60009,2470.684,2021-5-08T05:03:56Z
2021-05-08T03:05:49Z,42.805,6.029,13.2992,4.60019,2470.707,2021-5-08T05:06:59Z
2021-05-08T03:08:52Z,42.805,6.029,13.2991,4.60019,2470.67,2021-5-08T05:10:02Z
2021-05-08T03:11:55Z,42.805,6.029,13.2990,4.60014,2470.707,2021-5-08T05:13:05Z
2021-05-08T03:14:58Z,42.805,6.029,13.2990,4.60017,2470.67,2021-5-08T05:16:08Z
2021-05-08T03:18:01Z,42.805,6.029,13.2990,4.60015,2470.693,2021-5-08T05:19:11Z
2021-05-08T03:21:04Z,42.805,6.029,13.2996,4.60018,2470.707,2021-5-08T05:22:15Z
2021-05-08T03:24:07Z,42.805,6.029,13.2992,4.60084,2470.693,2021-5-08T05:25:18Z
2021-05-08T03:27:10Z,42.805,6.029,13.2998,4.60042,2470.707,2021-5-08T05:28:21Z
2021-05-08T03:30:14Z,42.805,6.029,13.2997,4.60004,2470.707,2021-5-08T05:31:24Z
2021-05-08T03:33:17Z,42.805,6.029,13.3015,4.60008,2470.693,2021-5-08T05:34:27Z
2021-05-08T03:36:20Z,42.805,6.029,13.3021,4.60036,2470.717,2021-5-08T05:37:30Z
2021-05-08T03:39:23Z,42.805,6.029,13.3021,4.60018,2470.707,2021-5-08T05:40:33Z
2021-05-08T03:42:26Z,42.805,6.029,13.3024,4.60024,2470.717,2021-5-08T05:43:36Z
2021-05-08T03:45:29Z,42.805,6.029,13.3024,4.60031,2470.73,2021-5-08T05:46:40Z
2021-05-08T03:48:32Z,42.805,6.029,13.3041,4.60015,2470.717,2021-5-08T05:49:43Z
2021-05-08T03:51:35Z,42.805,6.029,13.3048,4.60010,2470.693,2021-5-08T05:52:46Z
2021-05-08T03:54:38Z,42.805,6.029,13.3052,4.60019,2470.73,2021-5-08T05:55:49Z
2021-05-08T03:57:42Z,42.805,6.029,13.3045,4.60014,2470.73,2021-5-08T05:58:52Z
2021-05-08T04:00:45Z,42.805,6.029,13.3024,4.60011,2470.73,2021-5-08T06:01:55Z
2021-05-08T04:03:48Z,42.805,6.029,13.3004,4.60011,2470.73,2021-5-08T06:04:58Z
2021-05-08T04:06:51Z,42.805,6.029,13.3009,4.60008,2470.74,2021-5-08T06:08:01Z
2021-05-08T04:09:54Z,42.805,6.029,13.3012,4.60017,2470.74,2021-5-08T06:11:04Z
2021-05-08T04:12:57Z,42.805,6.029,13.3029,4.60009,2470.74,2021-5-08T06:14:08Z
2021-05-08T04:16:00Z,42.805,6.029,13.3023,4.60007,2470.73,2021-5-08T06:17:11Z
2021-05-08T04:19:03Z,42.805,6.029,13.3003,4.60025,2470.754,2021-5-08T06:20:14Z
2021-05-08T04:22:06Z,42.805,6.029,13.2996,4.60019,2470.754,2021-5-08T06:23:17Z
2021-05-08T04:25:10Z,42.805,6.029,13.3039,4.60046,2470.73,2021-5-08T06:26:20Z
2021-05-08T04:28:13Z,42.805,6.029,13.3002,4.60059,2470.717,2021-5-08T06:29:23Z
2021-05-08T04:31:16Z,42.805,6.029,13.2991,4.60111,2470.717,2021-5-08T06:32:26Z
2021-05-08T04:34:19Z,42.805,6.029,13.2993,4.60093,2470.74,2021-5-08T06:35:29Z
2021-05-08T04:37:22Z,42.805,6.029,13.2993,4.60073,2470.754,2021-5-08T06:38:33Z
2021-05-08T04:40:25Z,42.805,6.029,13.2991,4.60037,2470.74,2021-5-08T06:41:36Z
2021-05-08T04:43:28Z,42.805,6.029,13.2994,4.60031,2470.754,2021-5-08T06:44:39Z
2021-05-08T04:46:31Z,42.805,6.029,13.2993,4.60014,2470.717,2021-5-08T06:47:42Z
2021-05-08T04:49:35Z,42.805,6.029,13.2992,4.60031,2470.717,2021-5-08T06:50:45Z
2021-05-08T04:52:38Z,42.805,6.029,13.2991,4.60011,2470.763,2021-5-08T06:53:48Z
2021-05-08T04:55:41Z,42.805,6.029,13.2991,4.60028,2470.777,2021-5-08T06:56:51Z
2021-05-08T04:58:44Z,42.805,6.029,13.2990,4.60003,2470.726,2021-5-08T06:59:54Z
2021-05-08T05:01:47Z,42.805,6.029,13.2990,4.60003,2470.74,2021-5-08T07:02:57Z
2021-05-08T05:04:50Z,42.805,6.029,13.2991,4.60005,2470.754,2021-5-08T07:06:01Z
2021-05-08T05:07:53Z,42.805,6.029,13.2990,4.60009,2470.763,2021-5-08T07:09:04Z
2021-05-08T05:10:56Z,42.805,6.029,13.2991,4.60025,2470.754,2021-5-08T07:12:07Z
2021-05-08T05:13:59Z,42.805,6.029,13.2985,4.60015,2470.754,2021-5-08T07:15:10Z
2021-05-08T05:17:03Z,42.805,6.029,13.2991,4.60017,2470.717,2021-5-08T07:18:13Z
2021-05-08T05:20:06Z,42.805,6.029,13.2991,4.60010,2470.754,2021-5-08T07:21:16Z
2021-05-08T05:23:09Z,42.805,6.029,13.2990,4.60009,2470.74,2021-5-08T07:24:19Z
2021-05-08T05:26:12Z,42.805,6.029,13.2992,4.60011,2470.763,2021-5-08T07:27:22Z
2021-05-08T05:29:15Z,42.805,6.029,13.2993,4.60012,2470.763,2021-5-08T07:30:26Z
2021-05-08T05:32:18Z,42.805,6.029,13.2990,4.60011,2470.717,2021-5-08T07:33:29Z
2021-05-08T05:35:21Z,42.805,6.029,13.2991,4.60019,2470.74,2021-5-08T07:36:32Z
2021-05-08T05:38:24Z,42.805,6.029,13.2996,4.60010,2470.754,2021-5-08T07:39:35Z
2021-05-08T05:41:28Z,42.805,6.029,13.2987,4.60007,2470.73,2021-5-08T07:42:38Z
2021-05-08T05:44:31Z,42.805,6.029,13.2990,4.60006,2470.777,2021-5-08T07:45:41Z
2021-05-08T05:47:34Z,42.805,6.029,13.2992,4.60006,2470.777,2021-5-08T07:48:44Z
2021-05-08T05:50:37Z,42.805,6.029,13.2990,4.60005,2470.763,2021-5-08T07:51:47Z
2021-05-08T05:53:40Z,42.805,6.029,13.2991,4.60009,2470.726,2021-5-08T07:54:50Z
2021-05-08T05:56:43Z,42.805,6.029,13.2992,4.60012,2470.763,2021-5-08T07:57:54Z
2021-05-08T05:59:46Z,42.805,6.029,13.2992,4.60009,2470.74,2021-5-08T08:00:57Z
2021-05-08T06:02:49Z,42.805,6.029,13.2991,4.60007,2470.763,2021-5-08T08:04:00Z
2021-05-08T06:05:52Z,42.805,6.029,13.2991,4.60003,2470.74,2021-5-08T08:07:03Z
2021-05-08T06:08:56Z,42.805,6.029,13.2992,4.60003,2470.787,2021-5-08T08:10:06Z
2021-05-08T06:11:59Z,42.805,6.029,13.2990,4.60003,2470.717,2021-5-08T08:13:09Z
2021-05-08T06:15:02Z,42.805,6.029,13.2988,4.60003,2470.777,2021-5-08T08:16:12Z
2021-05-08T06:18:05Z,42.805,6.029,13.2990,4.60004,2470.777,2021-5-08T08:19:15Z
2021-05-08T06:21:08Z,42.805,6.029,13.2990,4.60003,2470.717,2021-5-08T08:22:19Z
2021-05-08T06:24:11Z,42.805,6.029,13.2991,4.60004,2470.75,2021-5-08T08:25:22Z
2021-05-08T06:27:14Z,42.805,6.029,13.2991,4.60005,2470.74,2021-5-08T08:28:25Z
2021-05-08T06:30:17Z,42.805,6.029,13.2993,4.60001,2470.754,2021-5-08T08:31:28Z
2021-05-08T06:33:21Z,42.805,6.029,13.2994,4.60001,2470.74,2021-5-08T08:34:31Z
2021-05-08T06:36:24Z,42.805,6.029,13.2990,4.60003,2470.717,2021-5-08T08:37:34Z
2021-05-08T06:39:27Z,42.805,6.029,13.2991,4.60002,2470.777,2021-5-08T08:40:37Z
2021-05-08T06:42:30Z,42.805,6.029,13.2989,4.60004,2470.763,2021-5-08T08:43:40Z
2021-05-08T06:45:33Z,42.805,6.029,13.2991,4.60002,2470.74,2021-5-08T08:46:43Z
2021-05-08T06:48:36Z,42.805,6.029,13.2991,4.60001,2470.763,2021-5-08T08:49:47Z
2021-05-08T06:51:39Z,42.805,6.029,13.2991,4.60005,2470.777,2021-5-08T08:52:50Z
2021-05-08T06:54:42Z,42.805,6.029,13.2991,4.60000,2470.73,2021-5-08T08:55:53Z
2021-05-08T06:57:46Z,42.805,6.029,13.2987,4.60003,2470.717,2021-5-08T08:58:56Z
2021-05-08T07:00:49Z,42.805,6.029,13.2993,4.60002,2470.754,2021-5-08T09:01:59Z
2021-05-08T07:03:52Z,42.805,6.029,13.2992,4.60003,2470.717,2021-5-08T09:05:02Z
2021-05-08T07:06:55Z,42.805,6.029,13.2990,4.60003,2470.74,2021-5-08T09:08:05Z
2021-05-08T07:09:58Z,42.805,6.029,13.2992,4.60001,2470.763,2021-5-08T09:11:08Z
2021-05-08T07:13:01Z,42.805,6.029,13.2990,4.60003,2470.717,2021-5-08T09:14:12Z
2021-05-08T07:16:04Z,42.805,6.029,13.2991,4.60001,2470.717,2021-5-08T09:17:15Z
2021-05-08T07:19:07Z,42.805,6.029,13.2988,4.60001,2470.74,2021-5-08T09:20:18Z
2021-05-08T07:22:10Z,42.805,6.029,13.2991,4.60003,2470.73,2021-5-08T09:23:21Z
2021-05-08T07:25:14Z,42.805,6.029,13.2994,4.60002,2470.717,2021-5-08T09:26:24Z
2021-05-08T07:28:17Z,42.805,6.029,13.2990,4.60001,2470.754,2021-5-08T09:29:27Z
2021-05-08T07:31:20Z,42.805,6.029,13.2990,4.59999,2470.717,2021-5-08T09:32:30Z
2021-05-08T07:34:23Z,42.805,6.029,13.2991,4.60001,2470.754,2021-5-08T09:35:33Z
2021-05-08T07:37:26Z,42.805,6.029,13.2990,4.60000,2470.693,2021-5-08T09:38:36Z
2021-05-08T07:40:29Z,42.805,6.029,13.2991,4.59999,2470.717,2021-5-08T09:41:40Z
2021-05-08T07:43:32Z,42.805,6.029,13.2988,4.60001,2470.74,2021-5-08T09:44:43Z
2021-05-08T07:46:35Z,42.805,6.029,13.2993,4.59998,2470.703,2021-5-08T09:47:46Z
2021-05-08T07:49:39Z,42.805,6.029,13.2990,4.60000,2470.693,2021-5-08T09:50:49Z
2021-05-08T07:52:42Z,42.805,6.029,13.2993,4.60003,2470.717,2021-5-08T09:53:52Z
2021-05-08T07:55:45Z,42.805,6.029,13.2989,4.60000,2470.717,2021-5-08T09:56:55Z
2021-05-08T07:58:48Z,42.805,6.029,13.2991,4.59999,2470.693,2021-5-08T09:59:58Z
2021-05-08T08:01:51Z,42.805,6.029,13.2992,4.59999,2470.717,2021-5-08T10:03:01Z
2021-05-08T08:04:54Z,42.805,6.029,13.2992,4.60003,2470.717,2021-5-08T10:06:05Z
2021-05-08T08:07:57Z,42.805,6.029,13.2990,4.59999,2470.693,2021-5-08T10:09:08Z
2021-05-08T08:11:00Z,42.805,6.029,13.2989,4.59999,2470.754,2021-5-08T10:12:11Z
2021-05-08T08:14:03Z,42.805,6.029,13.2990,4.60001,2470.707,2021-5-08T10:15:14Z
2021-05-08T08:17:07Z,42.805,6.029,13.2994,4.60003,2470.707,2021-5-08T10:18:17Z
2021-05-08T08:20:10Z,42.805,6.029,13.2994,4.60000,2470.707,2021-5-08T10:21:20Z
2021-05-08T08:23:13Z,42.805,6.029,13.2990,4.60000,2470.67,2021-5-08T10:24:23Z
2021-05-08T08:26:16Z,42.805,6.029,13.2990,4.59998,2470.693,2021-5-08T10:27:26Z
2021-05-08T08:29:19Z,42.805,6.029,13.2993,4.60001,2470.707,2021-5-08T10:30:30Z
2021-05-08T08:32:22Z,42.805,6.029,13.2995,4.60002,2470.646,2021-5-08T10:33:33Z
2021-05-08T08:35:25Z,42.805,6.029,13.2992,4.60000,2470.693,2021-5-08T10:36:36Z
2021-05-08T08:38:28Z,42.805,6.029,13.2991,4.59999,2470.707,2021-5-08T10:39:39Z
2021-05-08T08:41:32Z,42.805,6.029,13.2992,4.59999,2470.646,2021-5-08T10:42:42Z
2021-05-08T08:44:35Z,42.805,6.029,13.2993,4.59999,2470.707,2021-5-08T10:45:45Z
2021-05-08T08:47:38Z,42.805,6.029,13.2990,4.59998,2470.707,2021-5-08T10:48:48Z
2021-05-08T08:50:41Z,42.805,6.029,13.2993,4.59998,2470.67,2021-5-08T10:51:51Z
2021-05-08T08:53:44Z,42.805,6.029,13.2993,4.60001,2470.684,2021-5-08T10:54:55Z
2021-05-08T08:56:47Z,42.805,6.029,13.2990,4.60000,2470.684,2021-5-08T10:57:58Z
2021-05-08T08:59:50Z,42.805,6.029,13.2992,4.59996,2470.679,2021-5-08T11:01:01Z
2021-05-08T09:02:53Z,42.805,6.029,13.2990,4.59998,2470.684,2021-5-08T11:04:04Z
2021-05-08T09:05:57Z,42.805,6.029,13.2991,4.59997,2470.67,2021-5-08T11:07:07Z
2021-05-08T09:09:00Z,42.805,6.029,13.2990,4.59998,2470.646,2021-5-08T11:10:10Z
2021-05-08T09:12:03Z,42.805,6.029,13.2996,4.59998,2470.67,2021-5-08T11:13:13Z
2021-05-08T09:15:06Z,42.805,6.029,13.2993,4.60002,2470.633,2021-5-08T11:16:16Z
2021-05-08T09:18:09Z,42.805,6.029,13.2993,4.60000,2470.637,2021-5-08T11:19:19Z
2021-05-08T09:21:12Z,42.805,6.029,13.2993,4.59998,2470.661,2021-5-08T11:22:23Z
2021-05-08T09:24:15Z,42.805,6.029,13.2993,4.59999,2470.633,2021-5-08T11:25:26Z
2021-05-08T09:27:18Z,42.805,6.029,13.2990,4.59997,2470.637,2021-5-08T11:28:29Z
2021-05-08T09:30:22Z,42.805,6.029,13.2988,4.59999,2470.646,2021-5-08T11:31:32Z
2021-05-08T09:33:25Z,42.805,6.029,13.2995,4.59998,2470.624,2021-5-08T11:34:35Z
2021-05-08T09:36:28Z,42.805,6.029,13.2987,4.59999,2470.637,2021-5-08T11:37:38Z
2021-05-08T09:39:31Z,42.805,6.029,13.2991,4.59998,2470.624,2021-5-08T11:40:41Z
2021-05-08T09:42:34Z,42.805,6.029,13.2992,4.59997,2470.646,2021-5-08T11:43:45Z
2021-05-08T09:45:37Z,42.805,6.029,13.2995,4.59996,2470.646,2021-5-08T11:46:48Z
2021-05-08T09:48:40Z,42.805,6.029,13.2990,4.59996,2470.624,2021-5-08T11:49:51Z
2021-05-08T09:51:43Z,42.805,6.029,13.2990,4.59996,2470.684,2021-5-08T11:52:54Z
2021-05-08T09:54:47Z,42.805,6.029,13.2989,4.59997,2470.6,2021-5-08T11:55:57Z
2021-05-08T09:57:50Z,42.805,6.029,13.2988,4.59994,2470.637,2021-5-08T11:59:00Z
2021-05-08T10:00:53Z,42.805,6.029,13.2990,4.59995,2470.624,2021-5-08T12:02:03Z
2021-05-08T10:03:56Z,42.805,6.029,13.2990,4.59995,2470.6,2021-5-08T12:05:06Z
2021-05-08T10:06:59Z,42.805,6.029,13.2991,4.59996,2470.624,2021-5-08T12:08:09Z
2021-05-08T10:10:02Z,42.805,6.029,13.2993,4.59994,2470.637,2021-5-08T12:11:13Z
2021-05-08T10:13:05Z,42.805,6.029,13.2996,4.59999,2470.6,2021-5-08T12:14:16Z
2021-05-08T10:16:08Z,42.805,6.029,13.2992,4.59996,2470.646,2021-5-08T12:17:19Z
2021-05-08T10:19:12Z,42.805,6.029,13.2991,4.59996,2470.624,2021-5-08T12:20:22Z
2021-05-08T10:22:15Z,42.805,6.029,13.2988,4.59996,2470.6,2021-5-08T12:23:25Z
2021-05-08T10:25:18Z,42.805,6.029,13.2991,4.59996,2470.614,2021-5-08T12:26:28Z
2021-05-08T10:28:21Z,42.805,6.029,13.2989,4.59996,2470.614,2021-5-08T12:29:31Z
2021-05-08T10:31:24Z,42.805,6.029,13.2991,4.59998,2470.614,2021-5-08T12:32:34Z
2021-05-08T10:34:27Z,42.805,6.029,13.2990,4.59995,2470.614,2021-5-08T12:35:38Z
2021-05-08T10:37:30Z,42.805,6.029,13.2987,4.59996,2470.614,2021-5-08T12:38:41Z
2021-05-08T10:40:33Z,42.805,6.029,13.2989,4.59996,2470.553,2021-5-08T12:41:44Z
2021-05-08T10:43:37Z,42.805,6.029,13.2991,4.59995,2470.577,2021-5-08T12:44:47Z
2021-05-08T10:46:40Z,42.805,6.029,13.2993,4.59999,2470.591,2021-5-08T12:47:50Z
2021-05-08T10:49:43Z,42.805,6.029,13.2991,4.59996,2470.614,2021-5-08T12:50:53Z
2021-05-08T10:52:46Z,42.805,6.029,13.2990,4.59996,2470.614,2021-5-08T12:53:56Z
2021-05-08T10:55:49Z,42.805,6.029,13.2995,4.59997,2470.6,2021-5-08T12:56:59Z
2021-05-08T10:58:52Z,42.805,6.029,13.2994,4.59996,2470.6,2021-5-08T13:00:03Z
2021-05-08T11:01:55Z,42.805,6.029,13.2993,4.59996,2470.6,2021-5-08T13:03:06Z
2021-05-08T11:04:58Z,42.805,6.029,13.2991,4.59995,2470.591,2021-5-08T13:06:09Z
2021-05-08T11:08:01Z,42.805,6.029,13.2992,4.59995,2470.591,2021-5-08T13:09:12Z
2021-05-08T11:11:05Z,42.805,6.029,13.2993,4.59996,2470.614,2021-5-08T13:12:15Z
2021-05-08T11:14:08Z,42.805,6.029,13.2991,4.59998,2470.591,2021-5-08T13:15:18Z
2021-05-08T11:17:11Z,42.805,6.029,13.2991,4.59996,2470.591,2021-5-08T13:18:21Z
2021-05-08T11:20:14Z,42.805,6.029,13.2990,4.59996,2470.577,2021-5-08T13:21:24Z
2021-05-08T11:23:17Z,42.805,6.029,13.2991,4.59996,2470.6,2021-5-08T13:24:28Z
2021-05-08T11:26:20Z,42.805,6.029,13.2992,4.59996,2470.553,2021-5-08T13:27:31Z
2021-05-08T11:29:23Z,42.805,6.029,13.2996,4.59996,2470.6,2021-5-08T13:30:34Z
2021-05-08T11:32:27Z,42.805,6.029,13.2993,4.59996,2470.577,2021-5-08T13:33:37Z
2021-05-08T11:35:30Z,42.805,6.029,13.2993,4.59996,2470.6,2021-5-08T13:36:40Z
2021-05-08T11:38:33Z,42.805,6.029,13.2993,4.59998,2470.577,2021-5-08T13:39:43Z
2021-05-08T11:41:36Z,42.805,6.029,13.2990,4.59996,2470.577,2021-5-08T13:42:46Z
2021-05-08T11:44:39Z,42.805,6.029,13.2991,4.59997,2470.577,2021-5-08T13:45:49Z
2021-05-08T11:47:42Z,42.805,6.029,13.2993,4.59996,2470.577,2021-5-08T13:48:53Z
2021-05-08T11:50:45Z,42.805,6.029,13.2993,4.59998,2470.53,2021-5-08T13:51:56Z
2021-05-08T11:53:48Z,42.805,6.029,13.2991,4.59996,2470.553,2021-5-08T13:54:59Z
2021-05-08T11:56:51Z,42.805,6.029,13.2991,4.59997,2470.577,2021-5-08T13:58:02Z
2021-05-08T11:59:55Z,42.805,6.029,13.2995,4.59996,2470.6,2021-5-08T14:01:05Z
2021-05-08T12:02:58Z,42.805,6.029,13.2995,4.59996,2470.591,2021-5-08T14:04:08Z
2021-05-08T12:06:01Z,42.805,6.029,13.2992,4.59996,2470.577,2021-5-08T14:07:11Z
2021-05-08T12:09:04Z,42.805,6.029,13.2991,4.59997,2470.567,2021-5-08T14:10:14Z
2021-05-08T12:12:07Z,42.805,6.029,13.2995,4.59997,2470.53,2021-5-08T14:13:18Z
2021-05-08T12:15:10Z,42.805,6.029,13.2998,4.60000,2470.577,2021-5-08T14:16:21Z
2021-05-08T12:18:13Z,42.805,6.029,13.2992,4.59996,2470.577,2021-5-08T14:19:24Z
2021-05-08T12:21:16Z,42.805,6.029,13.2998,4.59996,2470.591,2021-5-08T14:22:27Z
2021-05-08T12:24:20Z,42.805,6.029,13.2992,4.59997,2470.53,2021-5-08T14:25:30Z
2021-05-08T12:27:23Z,42.805,6.029,13.2991,4.59999,2470.567,2021-5-08T14:28:33Z
2021-05-08T12:30:26Z,42.805,6.029,13.2994,4.59996,2470.553,2021-5-08T14:31:36Z
2021-05-08T12:33:29Z,42.805,6.029,13.2992,4.59996,2470.614,2021-5-08T14:34:39Z
2021-05-08T12:36:32Z,42.805,6.029,13.2993,4.59996,2470.567,2021-5-08T14:37:43Z
2021-05-08T12:39:35Z,42.805,6.029,13.2993,4.59996,2470.591,2021-5-08T14:40:46Z
2021-05-08T12:42:38Z,42.805,6.029,13.2992,4.59997,2470.577,2021-5-08T14:43:49Z
2021-05-08T12:45:41Z,42.805,6.029,13.2994,4.59996,2470.553,2021-5-08T14:46:52Z
2021-05-08T12:48:45Z,42.805,6.029,13.2990,4.59996,2470.553,2021-5-08T14:49:55Z
2021-05-08T12:51:48Z,42.805,6.029,13.2989,4.59996,2470.6,2021-5-08T14:52:58Z
2021-05-08T12:54:51Z,42.805,6.029,13.2991,4.59997,2470.553,2021-5-08T14:56:01Z
2021-05-08T12:57:54Z,42.805,6.029,13.2994,4.59998,2470.553,2021-5-08T14:59:04Z
2021-05-08T13:00:57Z,42.805,6.029,13.2992,4.59996,2470.6,2021-5-08T15:02:08Z
2021-05-08T13:04:00Z,42.805,6.029,13.2991,4.59996,2470.553,2021-5-08T15:05:11Z
2021-05-08T13:07:03Z,42.805,6.029,13.2991,4.59996,2470.553,2021-5-08T15:08:14Z
2021-05-08T13:10:06Z,42.805,6.029,13.2991,4.59996,2470.577,2021-5-08T15:11:17Z
2021-05-08T13:13:10Z,42.805,6.029,13.2989,4.59996,2470.553,2021-5-08T15:14:20Z
2021-05-08T13:16:13Z,42.805,6.029,13.2993,4.59997,2470.591,2021-5-08T15:17:23Z
2021-05-08T13:19:16Z,42.805,6.029,13.2990,4.59998,2470.577,2021-5-08T15:20:26Z
2021-05-08T13:22:19Z,42.805,6.029,13.2990,4.59996,2470.6,2021-5-08T15:23:29Z
2021-05-08T13:25:22Z,42.805,6.029,13.2993,4.59996,2470.577,2021-5-08T15:26:33Z
2021-05-08T13:28:25Z,42.805,6.029,13.2993,4.59996,2470.553,2021-5-08T15:29:36Z
2021-05-08T13:31:28Z,42.805,6.029,13.2993,4.59996,2470.577,2021-5-08T15:32:39Z
2021-05-08T13:34:31Z,42.805,6.029,13.2991,4.60001,2470.6,2021-5-08T15:35:42Z
2021-05-08T13:37:35Z,42.805,6.029,13.2992,4.59997,2470.6,2021-5-08T15:38:45Z
2021-05-08T13:40:38Z,42.805,6.029,13.2993,4.60002,2470.567,2021-5-08T15:41:48Z
2021-05-08T13:43:41Z,42.805,6.029,13.2993,4.60001,2470.591,2021-5-08T15:44:51Z
2021-05-08T13:46:44Z,42.805,6.029,13.2992,4.59997,2470.6,2021-5-08T15:47:54Z
2021-05-08T13:49:47Z,42.805,6.029,13.2993,4.59996,2470.553,2021-5-08T15:50:57Z
2021-05-08T13:52:50Z,42.805,6.029,13.2991,4.59999,2470.6,2021-5-08T15:54:01Z
2021-05-08T13:55:53Z,42.805,6.029,13.2991,4.59996,2470.591,2021-5-08T15:57:04Z
2021-05-08T13:58:56Z,42.805,6.029,13.2990,4.59998,2470.577,2021-5-08T16:00:07Z
2021-05-08T14:02:00Z,42.805,6.029,13.2990,4.59996,2470.637,2021-5-08T16:03:10Z
2021-05-08T14:05:03Z,42.805,6.029,13.2990,4.59996,2470.614,2021-5-08T16:06:13Z
2021-05-08T14:08:06Z,42.805,6.029,13.2992,4.59996,2470.6,2021-5-08T16:09:16Z
2021-05-08T14:11:09Z,42.805,6.029,13.2991,4.59996,2470.637,2021-5-08T16:12:19Z
2021-05-08T14:14:12Z,42.805,6.029,13.2990,4.59995,2470.6,2021-5-08T16:15:22Z
2021-05-08T14:17:15Z,42.805,6.029,13.2990,4.59996,2470.633,2021-5-08T16:18:26Z
2021-05-08T14:20:18Z,42.805,6.029,13.2991,4.59995,2470.637,2021-5-08T16:21:29Z
2021-05-08T14:23:21Z,42.805,6.029,13.2990,4.59995,2470.6,2021-5-08T16:24:32Z
2021-05-08T14:26:25Z,42.805,6.029,13.2986,4.59996,2470.614,2021-5-08T16:27:35Z
2021-05-08T14:29:28Z,42.805,6.029,13.2991,4.59995,2470.614,2021-5-08T16:30:38Z
2021-05-08T14:32:31Z,42.805,6.029,13.2990,4.59998,2470.624,2021-5-08T16:33:41Z
2021-05-08T14:35:34Z,42.805,6.029,13.2987,4.59995,2470.614,2021-5-08T16:36:44Z
2021-05-08T14:38:37Z,42.805,6.029,13.2993,4.59996,2470.624,2021-5-08T16:39:47Z
2021-05-08T14:41:40Z,42.805,6.029,13.2990,4.59995,2470.661,2021-5-08T16:42:51Z
2021-05-08T14:44:43Z,42.805,6.029,13.2988,4.59996,2470.61,2021-5-08T16:45:54Z
2021-05-08T14:47:46Z,42.805,6.029,13.2992,4.59996,2470.624,2021-5-08T16:48:57Z
2021-05-08T14:50:49Z,42.805,6.029,13.2990,4.59994,2470.624,2021-5-08T16:52:00Z
2021-05-08T14:53:53Z,42.805,6.029,13.2988,4.59996,2470.637,2021-5-08T16:55:03Z
2021-05-08T14:56:56Z,42.805,6.029,13.2987,4.59995,2470.646,2021-5-08T16:58:06Z
2021-05-08T14:59:59Z,42.805,6.029,13.2986,4.59995,2470.637,2021-5-08T17:01:09Z
2021-05-08T15:03:02Z,42.805,6.029,13.2993,4.59996,2470.637,2021-5-08T17:04:12Z
2021-05-08T15:06:05Z,42.805,6.029,13.2991,4.59996,2470.637,2021-5-08T17:07:16Z
2021-05-08T15:09:08Z,42.805,6.029,13.2991,4.59996,2470.624,2021-5-08T17:10:19Z
2021-05-08T15:12:11Z,42.805,6.029,13.2989,4.59996,2470.646,2021-5-08T17:13:22Z
2021-05-08T15:15:14Z,42.805,6.029,13.2990,4.59998,2470.637,2021-5-08T17:16:25Z